Regional Weather Roundup
Issued by NWS

Home | Current Version | Previous Version | Graphics & Text | Print | Product List | Glossary On
Versions: 1 2 3 4 5 6 7 8 9 10 11 12 13 14 15 16 17 18 19 20 21 22 23 24 25 26 27 28 29 30 31 32 33 34 35 36 37 38 39 40 41 42 43 44 45 46 47 48 49 50
000
ASUS43 KIND 272209
RWRIN

WEATHER ROUNDUP FOR INDIANA
NATIONAL WEATHER SERVICE INDIANAPOLIS IN
600 PM EDT SUN JUL 27 2014

NOTE: "FAIR" INDICATES FEW OR NO CLOUDS BELOW 12,000 FEET WITH NO
SIGNIFICANT WEATHER AND/OR OBSTRUCTIONS TO VISIBILITY.

* - STATION DOES NOT REPORT WEATHER SUCH AS PRECIPITATION OR FOG.

+ - STATION NOT QUALITY CONTROLLED BY THE NATIONAL WEATHER SERVICE.
    USE DATA WITH CAUTION...ESPECIALLY DEWPOINT AND RELATIVE
    HUMIDITY OBSERVATIONS.

INZ001>003-010>013-019-020-272300-
NORTHWEST INDIANA

CITY           SKY/WX    TMP DP  RH WIND       PRES   REMARKS
GARY /AIRPORT/ PTSUNNY   82  52  34 W23G41    29.73R
KNOX *+        MOSUNNY   83  54  36 W16G33    29.70R
LA PORTE +     CLOUDY    77  57  50 NW14G24   29.72R
MICHIGAN CITY+ CLOUDY    70  57  64 N12G25    29.74R
MONTICELLO +   MOSUNNY   80  62  53 W18G25    29.72R
RENSSELAER +   MOSUNNY   79  59  50 W12G29    29.74S
VALPARAISO     PTSUNNY   81  57  43 NW21G31   29.73R

$$

LMZ046-743>745-272300-
SOUTHERN LAKE MICHIGAN

STATION/POSITION TIME  TEMP WIND        PRES
                       AIR  DIR/SP/G
                 (UTC) (F)  (DEG/KT/KT) (MB)
BURNS HARBOR     2200   75  300/ 17/ 22 1006.8R
MICHIGAN CITY    2200   74  280/ 18/ 21   N/A

$$

INZ004-005-014>016-021>024-272300-
NORTH CENTRAL INDIANA

CITY           SKY/WX    TMP DP  RH WIND       PRES   REMARKS
GOSHEN         SUNNY     80  66  62 W16       29.68R
LOGANSPORT +   MOSUNNY   79  55  44 W16G32    29.73R
PERU/GRISSOM   MOSUNNY   83  63  51 W23G31    29.71R
ROCHESTER +    SUNNY     86  54  32 NW22G30   29.70R
SOUTH BEND     LGT RAIN  73  59  61 NW26G37   29.72R
WARSAW +       PTSUNNY   77  64  65 CALM      29.69R

$$

INZ006>009-017-018-025>027-272300-
NORTHEAST INDIANA

CITY           SKY/WX    TMP DP  RH WIND       PRES   REMARKS
ANGOLA *+      PTSUNNY   73  66  78 W6        29.67R
AUBURN +       PTSUNNY   68  63  83 SW5       29.68S
FORT WAYNE     CLOUDY    74  67  78 W9        29.70F
HUNTINGTON +   PTSUNNY   76  67  71 CALM      29.70F

$$

INZ028-029-035-036-043>045-051>053-272300-
WEST CENTRAL INDIANA

CITY           SKY/WX    TMP DP  RH WIND       PRES   REMARKS
GREENCASTLE +  MOSUNNY   82  64  54 NW12G21   29.77R
LAFAYETTE      SUNNY     82  60  47 W16G26    29.73R
TERRE HAUTE    SUNNY     84  59  42 W16G30    29.78R

$$

INZ030>032-037>040-046>048-054>057-064-065-272300-
CENTRAL INDIANA

CITY           SKY/WX    TMP DP  RH WIND       PRES   REMARKS
CP ATTERBURY + MOSUNNY   84  64  51 W14G21    29.73F
COLUMBUS       MOSUNNY   84  70  61 W16G25    29.73S
GREENWOOD *+   PTSUNNY   79  70  73 W10G16    29.76
INDIANAPOLIS   LGT RAIN  75  68  78 W15G33    29.74R
-EAGLE CREEK   PTSUNNY   78  66  66 W14G21    29.74S
KOKOMO *+      MOSUNNY   81  66  61 W24       29.72R
MARION +       MOSUNNY   76  67  74 W10       29.72S
MT COMFORT *+  PTSUNNY   81  70  69 W18       29.74S
SHELBYVILLE    PTSUNNY   84  68  58 W17G25    29.73R
ZIONSVILLE +   MOSUNNY   81  68  65 W10       29.75F

$$

INZ033-034-041-042-049-050-058-059-272300-
EAST CENTRAL INDIANA

CITY           SKY/WX    TMP DP  RH WIND       PRES   REMARKS
MUNCIE         CLOUDY    72  65  78 W13       29.74R

$$

INZ060-061-067>069-081>083-085>088-272300-
SOUTHWEST INDIANA

CITY           SKY/WX    TMP DP  RH WIND       PRES   REMARKS
EVANSVILLE     SUNNY     89  66  46 W10       29.82S
WASHINGTON +   SUNNY     85  71  63 W12G20    29.78F

$$

INZ062-063-066-070>080-084-089>092-272300-
SOUTH CENTRAL AND SOUTHEAST INDIANA

CITY           SKY/WX    TMP DP  RH WIND       PRES   REMARKS
BEDFORD +      MOSUNNY   84  66  54 W12G18    29.77
BLOOMINGTON    MOSUNNY   83  69  62 W10       29.76F
NORTH VERNON + MOSUNNY   84  70  61 W14G24    29.73

$$



USA.gov is the U.S. government's official web portal to all federal, state and local government web resources and services.